contact:dominique.lefevre@mio.osupytheas.fr, maurice.libes@osupytheas.fr, didier.mallarino@osupytheas.fr
Project:EMSO http://www.emso-fr.org/EMSO-France
Depth: 2436.0 m
Title:EMSO Ligure Ouest : Data MII capteur CSTAR
DateTime,Latitude,Longitude,Instrument_Serial,Reference_Counts,Signal_Counts,Corrected_Signal_raw_counts,Calculated_Beam_c_inverse_meters,Internal_thermistor_counts
DateTime,Latitude,Longitude,Instrument_Serial,Reference_Counts,Signal_Counts,Corrected_Signal_raw_counts,Calculated_Beam_c_inverse_meters,Internal_thermistor_counts
2020-04-23T00:01:21,42.805,6.029,CST-1368DR,6426,9008,15185,0.112,551
2020-04-23T00:04:23,42.805,6.029,CST-1368DR,6426,9010,15188,0.111,551
2020-04-23T00:07:25,42.805,6.029,CST-1368DR,6426,9010,15188,0.111,550
2020-04-23T00:10:26,42.805,6.029,CST-1368DR,6426,9010,15188,0.111,551
2020-04-23T00:13:28,42.805,6.029,CST-1368DR,6426,9010,15188,0.111,551
2020-04-23T00:16:30,42.805,6.029,CST-1368DR,6426,9010,15188,0.111,551
2020-04-23T00:19:31,42.805,6.029,CST-1368DR,6426,9010,15188,0.111,551
2020-04-23T00:22:33,42.805,6.029,CST-1368DR,6426,9008,15185,0.112,551
2020-04-23T00:25:35,42.805,6.029,CST-1368DR,6426,9009,15187,0.111,551
2020-04-23T00:28:37,42.805,6.029,CST-1368DR,6426,9010,15188,0.111,551
2020-04-23T00:31:38,42.805,6.029,CST-1368DR,6426,9009,15187,0.111,551
2020-04-23T00:34:40,42.805,6.029,CST-1368DR,6426,9009,15187,0.111,551
2020-04-23T00:37:42,42.805,6.029,CST-1368DR,6426,9009,15187,0.111,551
2020-04-23T00:40:43,42.805,6.029,CST-1368DR,6426,9009,15186,0.112,551
2020-04-23T00:43:45,42.805,6.029,CST-1368DR,6426,9009,15186,0.112,551
2020-04-23T00:46:47,42.805,6.029,CST-1368DR,6426,9010,15188,0.111,551
2020-04-23T00:49:49,42.805,6.029,CST-1368DR,6426,9009,15187,0.111,551
2020-04-23T00:52:50,42.805,6.029,CST-1368DR,6426,9009,15186,0.112,551
2020-04-23T00:55:52,42.805,6.029,CST-1368DR,6426,9009,15186,0.112,551
2020-04-23T00:58:54,42.805,6.029,CST-1368DR,6426,9009,15187,0.111,551
2020-04-23T01:01:55,42.805,6.029,CST-1368DR,6426,9009,15186,0.112,551
2020-04-23T01:04:57,42.805,6.029,CST-1368DR,6426,9008,15186,0.112,551
2020-04-23T01:07:59,42.805,6.029,CST-1368DR,6426,9007,15183,0.112,551
2020-04-23T01:11:00,42.805,6.029,CST-1368DR,6426,9010,15188,0.111,551
2020-04-23T01:14:02,42.805,6.029,CST-1368DR,6426,9009,15186,0.112,551
2020-04-23T01:17:04,42.805,6.029,CST-1368DR,6426,9009,15186,0.112,551
2020-04-23T01:20:05,42.805,6.029,CST-1368DR,6426,9009,15186,0.112,551
2020-04-23T01:23:07,42.805,6.029,CST-1368DR,6426,9009,15187,0.111,551
2020-04-23T01:26:09,42.805,6.029,CST-1368DR,6426,9008,15186,0.112,551
2020-04-23T01:29:11,42.805,6.029,CST-1368DR,6426,9009,15187,0.111,551
2020-04-23T01:32:12,42.805,6.029,CST-1368DR,6426,9010,15188,0.111,551
2020-04-23T01:35:14,42.805,6.029,CST-1368DR,6426,9009,15186,0.112,551
2020-04-23T01:38:16,42.805,6.029,CST-1368DR,6426,9009,15186,0.112,551
2020-04-23T01:41:17,42.805,6.029,CST-1368DR,6426,9009,15186,0.112,551
2020-04-23T01:44:19,42.805,6.029,CST-1368DR,6426,9009,15187,0.111,551
2020-04-23T01:47:21,42.805,6.029,CST-1368DR,6426,9008,15186,0.112,551
2020-04-23T01:50:23,42.805,6.029,CST-1368DR,6426,9009,15187,0.111,551
2020-04-23T01:53:24,42.805,6.029,CST-1368DR,6426,9009,15186,0.112,551
2020-04-23T01:56:26,42.805,6.029,CST-1368DR,6426,9009,15187,0.111,550
2020-04-23T01:59:28,42.805,6.029,CST-1368DR,6426,9009,15187,0.111,551
2020-04-23T02:02:29,42.805,6.029,CST-1368DR,6426,9009,15187,0.111,551
2020-04-23T02:05:31,42.805,6.029,CST-1368DR,6426,9007,15183,0.112,550
2020-04-23T02:08:33,42.805,6.029,CST-1368DR,6426,9009,15186,0.112,551
2020-04-23T02:11:34,42.805,6.029,CST-1368DR,6426,9008,15184,0.112,551
2020-04-23T02:14:36,42.805,6.029,CST-1368DR,6426,9009,15187,0.111,551
2020-04-23T02:17:38,42.805,6.029,CST-1368DR,6426,9009,15186,0.112,551
2020-04-23T02:20:39,42.805,6.029,CST-1368DR,6426,9009,15187,0.111,551
2020-04-23T02:23:41,42.805,6.029,CST-1368DR,6426,9008,15185,0.112,551
2020-04-23T02:26:43,42.805,6.029,CST-1368DR,6426,9009,15186,0.112,551
2020-04-23T02:29:45,42.805,6.029,CST-1368DR,6426,9010,15188,0.111,551
2020-04-23T02:32:46,42.805,6.029,CST-1368DR,6426,9009,15187,0.111,551
2020-04-23T02:35:48,42.805,6.029,CST-1368DR,6426,9010,15188,0.111,551
2020-04-23T02:38:50,42.805,6.029,CST-1368DR,6425,9009,15188,0.111,551
2020-04-23T02:41:52,42.805,6.029,CST-1368DR,6426,9008,15186,0.112,551
2020-04-23T02:44:53,42.805,6.029,CST-1368DR,6425,9009,15188,0.111,551
2020-04-23T02:47:55,42.805,6.029,CST-1368DR,6426,9008,15185,0.112,551
2020-04-23T02:50:57,42.805,6.029,CST-1368DR,6426,9008,15185,0.112,551
2020-04-23T02:53:58,42.805,6.029,CST-1368DR,6426,9009,15186,0.112,551
2020-04-23T02:57:00,42.805,6.029,CST-1368DR,6426,9008,15185,0.112,551
2020-04-23T03:00:02,42.805,6.029,CST-1368DR,6426,9008,15185,0.112,551
2020-04-23T03:03:03,42.805,6.029,CST-1368DR,6426,9009,15187,0.111,551
2020-04-23T03:06:05,42.805,6.029,CST-1368DR,6426,9008,15186,0.112,551
2020-04-23T03:09:07,42.805,6.029,CST-1368DR,6425,9001,15176,0.114,551
2020-04-23T03:12:09,42.805,6.029,CST-1368DR,6426,9008,15186,0.112,551
2020-04-23T03:15:10,42.805,6.029,CST-1368DR,6425,9007,15185,0.112,551
2020-04-23T03:18:12,42.805,6.029,CST-1368DR,6425,9008,15187,0.111,550
2020-04-23T03:21:14,42.805,6.029,CST-1368DR,6425,9008,15187,0.111,551
2020-04-23T03:24:15,42.805,6.029,CST-1368DR,6425,9008,15187,0.111,551
2020-04-23T03:27:17,42.805,6.029,CST-1368DR,6425,9007,15186,0.112,551
2020-04-23T03:30:19,42.805,6.029,CST-1368DR,6425,9007,15186,0.112,551
2020-04-23T03:33:21,42.805,6.029,CST-1368DR,6425,9008,15187,0.111,551
2020-04-23T03:36:22,42.805,6.029,CST-1368DR,6425,9008,15188,0.111,551
2020-04-23T03:39:24,42.805,6.029,CST-1368DR,6425,9007,15185,0.112,551
2020-04-23T03:42:26,42.805,6.029,CST-1368DR,6425,9005,15183,0.112,551
2020-04-23T03:45:28,42.805,6.029,CST-1368DR,6425,9007,15185,0.112,551
2020-04-23T03:48:29,42.805,6.029,CST-1368DR,6425,9007,15185,0.112,551
2020-04-23T03:51:31,42.805,6.029,CST-1368DR,6425,9006,15184,0.112,550
2020-04-23T03:54:33,42.805,6.029,CST-1368DR,6425,9007,15185,0.112,551
2020-04-23T03:57:35,42.805,6.029,CST-1368DR,6425,9007,15185,0.112,551
2020-04-23T04:00:36,42.805,6.029,CST-1368DR,6425,9008,15187,0.111,551
2020-04-23T04:03:38,42.805,6.029,CST-1368DR,6425,9008,15187,0.111,551
2020-04-23T04:06:40,42.805,6.029,CST-1368DR,6425,9007,15186,0.112,551
2020-04-23T04:09:42,42.805,6.029,CST-1368DR,6425,9009,15189,0.111,551
2020-04-23T04:12:43,42.805,6.029,CST-1368DR,6425,9009,15189,0.111,551
2020-04-23T04:15:45,42.805,6.029,CST-1368DR,6425,9007,15186,0.112,551
2020-04-23T04:18:47,42.805,6.029,CST-1368DR,6425,9008,15188,0.111,551
2020-04-23T04:21:49,42.805,6.029,CST-1368DR,6425,9007,15186,0.112,551
2020-04-23T04:24:50,42.805,6.029,CST-1368DR,6425,9006,15183,0.112,551
2020-04-23T04:27:52,42.805,6.029,CST-1368DR,6425,9007,15186,0.112,551
2020-04-23T04:30:54,42.805,6.029,CST-1368DR,6425,9008,15187,0.111,551
2020-04-23T04:33:55,42.805,6.029,CST-1368DR,6425,9008,15187,0.111,551
2020-04-23T04:36:57,42.805,6.029,CST-1368DR,6425,9008,15187,0.111,551
2020-04-23T04:39:59,42.805,6.029,CST-1368DR,6425,9008,15187,0.111,551
2020-04-23T04:43:01,42.805,6.029,CST-1368DR,6425,9009,15189,0.111,551
2020-04-23T04:46:03,42.805,6.029,CST-1368DR,6425,9008,15187,0.111,551
2020-04-23T04:49:04,42.805,6.029,CST-1368DR,6425,9008,15188,0.111,551
2020-04-23T04:52:06,42.805,6.029,CST-1368DR,6425,9009,15188,0.111,551
2020-04-23T04:55:08,42.805,6.029,CST-1368DR,6425,9007,15185,0.112,551
2020-04-23T04:58:09,42.805,6.029,CST-1368DR,6425,9007,15186,0.112,551
2020-04-23T05:01:11,42.805,6.029,CST-1368DR,6425,9008,15187,0.111,551
2020-04-23T05:04:13,42.805,6.029,CST-1368DR,6425,9008,15187,0.111,551
2020-04-23T05:07:14,42.805,6.029,CST-1368DR,6425,9006,15184,0.112,551
2020-04-23T05:10:16,42.805,6.029,CST-1368DR,6425,9007,15185,0.112,551
2020-04-23T05:13:18,42.805,6.029,CST-1368DR,6425,9008,15187,0.111,551
2020-04-23T05:16:19,42.805,6.029,CST-1368DR,6425,9007,15185,0.112,551
2020-04-23T05:19:21,42.805,6.029,CST-1368DR,6425,9009,15188,0.111,551
2020-04-23T05:22:23,42.805,6.029,CST-1368DR,6425,9007,15185,0.112,551
2020-04-23T05:25:24,42.805,6.029,CST-1368DR,6425,9009,15189,0.111,551
2020-04-23T05:28:26,42.805,6.029,CST-1368DR,6425,9008,15187,0.111,550
2020-04-23T05:31:28,42.805,6.029,CST-1368DR,6425,9008,15188,0.111,551
2020-04-23T05:34:30,42.805,6.029,CST-1368DR,6425,9008,15187,0.111,551
2020-04-23T05:37:31,42.805,6.029,CST-1368DR,6425,9009,15188,0.111,551
2020-04-23T05:40:33,42.805,6.029,CST-1368DR,6425,9008,15188,0.111,551
2020-04-23T05:43:35,42.805,6.029,CST-1368DR,6425,9008,15187,0.111,551
2020-04-23T05:46:36,42.805,6.029,CST-1368DR,6425,9008,15187,0.111,550
2020-04-23T05:49:38,42.805,6.029,CST-1368DR,6425,9008,15187,0.111,551
2020-04-23T05:52:40,42.805,6.029,CST-1368DR,6425,9008,15188,0.111,550
2020-04-23T05:55:41,42.805,6.029,CST-1368DR,6425,9009,15188,0.111,551
2020-04-23T05:58:43,42.805,6.029,CST-1368DR,6425,9008,15188,0.111,551
2020-04-23T06:01:45,42.805,6.029,CST-1368DR,6425,9008,15187,0.111,551
2020-04-23T06:04:47,42.805,6.029,CST-1368DR,6425,9008,15188,0.111,550
2020-04-23T06:07:48,42.805,6.029,CST-1368DR,6425,9008,15187,0.111,551
2020-04-23T06:10:50,42.805,6.029,CST-1368DR,6425,9008,15187,0.111,551
2020-04-23T06:13:52,42.805,6.029,CST-1368DR,6425,9007,15186,0.112,551
2020-04-23T06:16:53,42.805,6.029,CST-1368DR,6425,9008,15188,0.111,551
2020-04-23T06:19:55,42.805,6.029,CST-1368DR,6425,9007,15186,0.112,551
2020-04-23T06:22:57,42.805,6.029,CST-1368DR,6425,9008,15187,0.111,551
2020-04-23T06:25:59,42.805,6.029,CST-1368DR,6425,9008,15187,0.111,551
2020-04-23T06:29:00,42.805,6.029,CST-1368DR,6425,9005,15183,0.112,551
2020-04-23T06:32:02,42.805,6.029,CST-1368DR,6425,9008,15187,0.111,551
2020-04-23T06:35:04,42.805,6.029,CST-1368DR,6425,9008,15187,0.111,551
2020-04-23T06:38:05,42.805,6.029,CST-1368DR,6425,9007,15186,0.112,551
2020-04-23T06:41:07,42.805,6.029,CST-1368DR,6425,9008,15187,0.111,551
2020-04-23T06:44:09,42.805,6.029,CST-1368DR,6425,9008,15187,0.111,551
2020-04-23T06:47:11,42.805,6.029,CST-1368DR,6425,9007,15186,0.112,551
2020-04-23T06:50:12,42.805,6.029,CST-1368DR,6425,9008,15187,0.111,551
2020-04-23T06:53:14,42.805,6.029,CST-1368DR,6425,9007,15186,0.112,551
2020-04-23T06:56:16,42.805,6.029,CST-1368DR,6425,9008,15187,0.111,551
2020-04-23T06:59:17,42.805,6.029,CST-1368DR,6425,9008,15187,0.111,551
2020-04-23T07:02:19,42.805,6.029,CST-1368DR,6425,9008,15187,0.111,551
2020-04-23T07:05:21,42.805,6.029,CST-1368DR,6425,9008,15187,0.111,551
2020-04-23T07:08:22,42.805,6.029,CST-1368DR,6425,9007,15186,0.112,551
2020-04-23T07:11:24,42.805,6.029,CST-1368DR,6425,9007,15185,0.112,550
2020-04-23T07:14:26,42.805,6.029,CST-1368DR,6425,9006,15184,0.112,551
2020-04-23T07:17:28,42.805,6.029,CST-1368DR,6425,9006,15184,0.112,551
2020-04-23T07:20:29,42.805,6.029,CST-1368DR,6425,9007,15186,0.112,551
2020-04-23T07:23:31,42.805,6.029,CST-1368DR,6425,9007,15186,0.112,551
2020-04-23T07:26:33,42.805,6.029,CST-1368DR,6425,9006,15184,0.112,551
2020-04-23T07:29:35,42.805,6.029,CST-1368DR,6425,9007,15185,0.112,551
2020-04-23T07:32:36,42.805,6.029,CST-1368DR,6425,9008,15187,0.111,551
2020-04-23T07:35:38,42.805,6.029,CST-1368DR,6425,9008,15187,0.111,551
2020-04-23T07:38:40,42.805,6.029,CST-1368DR,6425,9007,15185,0.112,551
2020-04-23T07:41:42,42.805,6.029,CST-1368DR,6425,9008,15188,0.111,550
2020-04-23T07:44:43,42.805,6.029,CST-1368DR,6425,9008,15187,0.111,551
2020-04-23T07:47:45,42.805,6.029,CST-1368DR,6425,8993,15161,0.118,551
2020-04-23T07:50:47,42.805,6.029,CST-1368DR,6425,9007,15185,0.112,551
2020-04-23T07:53:49,42.805,6.029,CST-1368DR,6425,9006,15184,0.112,551
2020-04-23T07:56:50,42.805,6.029,CST-1368DR,6425,9007,15185,0.112,551
2020-04-23T07:59:52,42.805,6.029,CST-1368DR,6425,9008,15187,0.111,551
2020-04-23T08:02:54,42.805,6.029,CST-1368DR,6425,9007,15185,0.112,551
2020-04-23T08:05:55,42.805,6.029,CST-1368DR,6425,9008,15187,0.111,551
2020-04-23T08:08:57,42.805,6.029,CST-1368DR,6425,9006,15184,0.112,551
2020-04-23T08:11:59,42.805,6.029,CST-1368DR,6425,9006,15184,0.112,551
2020-04-23T08:15:00,42.805,6.029,CST-1368DR,6425,9008,15187,0.111,551
2020-04-23T08:18:02,42.805,6.029,CST-1368DR,6425,9007,15185,0.112,551
2020-04-23T08:21:04,42.805,6.029,CST-1368DR,6425,9003,15179,0.114,551
2020-04-23T08:24:06,42.805,6.029,CST-1368DR,6425,9006,15184,0.112,550
2020-04-23T08:27:07,42.805,6.029,CST-1368DR,6425,9008,15187,0.111,551
2020-04-23T08:30:09,42.805,6.029,CST-1368DR,6425,9007,15186,0.112,551
2020-04-23T08:33:11,42.805,6.029,CST-1368DR,6425,9007,15185,0.112,550
2020-04-23T08:36:13,42.805,6.029,CST-1368DR,6425,9007,15186,0.112,551
2020-04-23T08:39:14,42.805,6.029,CST-1368DR,6424,9005,15185,0.112,551
2020-04-23T08:42:16,42.805,6.029,CST-1368DR,6424,9006,15185,0.112,551
2020-04-23T08:45:18,42.805,6.029,CST-1368DR,6424,9007,15187,0.111,551
2020-04-23T08:48:19,42.805,6.029,CST-1368DR,6424,9007,15187,0.111,551
2020-04-23T08:51:21,42.805,6.029,CST-1368DR,6425,9005,15183,0.112,551
2020-04-23T08:54:23,42.805,6.029,CST-1368DR,6424,9007,15187,0.111,551
2020-04-23T08:57:25,42.805,6.029,CST-1368DR,6425,9007,15186,0.112,551
2020-04-23T09:00:26,42.805,6.029,CST-1368DR,6425,9007,15185,0.112,551
2020-04-23T09:03:28,42.805,6.029,CST-1368DR,6424,9007,15188,0.111,551
2020-04-23T09:06:30,42.805,6.029,CST-1368DR,6424,9006,15186,0.112,551
2020-04-23T09:09:31,42.805,6.029,CST-1368DR,6424,9003,15182,0.113,550
2020-04-23T09:12:33,42.805,6.029,CST-1368DR,6424,9005,15185,0.112,551
2020-04-23T09:15:35,42.805,6.029,CST-1368DR,6424,9007,15187,0.111,551
2020-04-23T09:18:36,42.805,6.029,CST-1368DR,6424,9005,15184,0.112,551
2020-04-23T09:21:38,42.805,6.029,CST-1368DR,6424,9007,15188,0.111,551
2020-04-23T09:24:40,42.805,6.029,CST-1368DR,6424,9007,15187,0.111,551
2020-04-23T09:27:42,42.805,6.029,CST-1368DR,6424,9006,15186,0.112,551
2020-04-23T09:30:43,42.805,6.029,CST-1368DR,6424,9007,15187,0.111,551
2020-04-23T09:33:45,42.805,6.029,CST-1368DR,6424,9006,15187,0.111,551
2020-04-23T09:36:47,42.805,6.029,CST-1368DR,6424,9006,15187,0.111,551
2020-04-23T09:39:49,42.805,6.029,CST-1368DR,6424,9006,15186,0.112,551
2020-04-23T09:42:50,42.805,6.029,CST-1368DR,6424,9004,15182,0.113,551
2020-04-23T09:45:52,42.805,6.029,CST-1368DR,6424,9007,15188,0.111,551
2020-04-23T09:48:54,42.805,6.029,CST-1368DR,6424,9006,15187,0.111,551
2020-04-23T09:51:55,42.805,6.029,CST-1368DR,6424,9005,15185,0.112,551
2020-04-23T09:54:57,42.805,6.029,CST-1368DR,6424,9007,15188,0.111,551
2020-04-23T09:57:59,42.805,6.029,CST-1368DR,6424,9006,15186,0.112,551
2020-04-23T10:01:00,42.805,6.029,CST-1368DR,6424,9006,15185,0.112,551
2020-04-23T10:04:02,42.805,6.029,CST-1368DR,6424,9006,15187,0.111,551
2020-04-23T10:07:04,42.805,6.029,CST-1368DR,6424,9006,15186,0.112,551
2020-04-23T10:10:06,42.805,6.029,CST-1368DR,6424,9005,15184,0.112,551
2020-04-23T10:13:07,42.805,6.029,CST-1368DR,6424,9005,15185,0.112,551
2020-04-23T10:16:09,42.805,6.029,CST-1368DR,6424,9006,15187,0.111,551
2020-04-23T10:19:11,42.805,6.029,CST-1368DR,6424,9005,15185,0.112,551
2020-04-23T10:22:13,42.805,6.029,CST-1368DR,6424,9003,15181,0.113,551
2020-04-23T10:25:15,42.805,6.029,CST-1368DR,6424,9006,15187,0.111,551
2020-04-23T10:28:16,42.805,6.029,CST-1368DR,6424,9005,15185,0.112,551
2020-04-23T10:31:18,42.805,6.029,CST-1368DR,6424,9004,15183,0.112,550
2020-04-23T10:34:20,42.805,6.029,CST-1368DR,6424,9002,15180,0.113,551
2020-04-23T10:37:21,42.805,6.029,CST-1368DR,6424,9004,15183,0.112,551
2020-04-23T10:40:23,42.805,6.029,CST-1368DR,6424,9006,15187,0.111,551
2020-04-23T10:43:25,42.805,6.029,CST-1368DR,6424,9006,15186,0.112,551
2020-04-23T10:46:26,42.805,6.029,CST-1368DR,6424,9006,15187,0.111,550
2020-04-23T10:49:28,42.805,6.029,CST-1368DR,6424,9006,15185,0.112,551
2020-04-23T10:52:30,42.805,6.029,CST-1368DR,6424,9005,15185,0.112,551
2020-04-23T10:55:32,42.805,6.029,CST-1368DR,6424,9005,15185,0.112,551
2020-04-23T10:58:33,42.805,6.029,CST-1368DR,6424,9005,15185,0.112,551
2020-04-23T11:01:35,42.805,6.029,CST-1368DR,6424,9005,15185,0.112,551
2020-04-23T11:04:37,42.805,6.029,CST-1368DR,6424,9006,15185,0.112,551
2020-04-23T11:07:39,42.805,6.029,CST-1368DR,6424,9006,15185,0.112,550
2020-04-23T11:10:40,42.805,6.029,CST-1368DR,6424,9004,15183,0.112,551
2020-04-23T11:13:42,42.805,6.029,CST-1368DR,6424,9004,15183,0.112,551
2020-04-23T11:16:44,42.805,6.029,CST-1368DR,6424,9003,15182,0.113,551
2020-04-23T11:19:46,42.805,6.029,CST-1368DR,6424,9006,15186,0.112,551
2020-04-23T11:22:47,42.805,6.029,CST-1368DR,6424,9006,15187,0.111,551
2020-04-23T11:25:49,42.805,6.029,CST-1368DR,6424,9006,15186,0.112,551
2020-04-23T11:28:51,42.805,6.029,CST-1368DR,6424,9007,15187,0.111,551
2020-04-23T11:31:53,42.805,6.029,CST-1368DR,6424,9006,15186,0.112,551
2020-04-23T11:34:54,42.805,6.029,CST-1368DR,6424,9002,15179,0.114,551
2020-04-23T11:37:56,42.805,6.029,CST-1368DR,6424,9005,15185,0.112,551
2020-04-23T11:40:58,42.805,6.029,CST-1368DR,6424,9005,15185,0.112,551
2020-04-23T11:43:59,42.805,6.029,CST-1368DR,6424,9005,15184,0.112,551
2020-04-23T11:47:01,42.805,6.029,CST-1368DR,6424,9006,15185,0.112,551
2020-04-23T11:50:03,42.805,6.029,CST-1368DR,6424,9006,15185,0.112,550
2020-04-23T11:53:04,42.805,6.029,CST-1368DR,6424,9004,15183,0.112,551
2020-04-23T11:56:06,42.805,6.029,CST-1368DR,6424,9006,15185,0.112,551
2020-04-23T11:59:08,42.805,6.029,CST-1368DR,6424,9004,15182,0.113,551
2020-04-23T12:02:10,42.805,6.029,CST-1368DR,6424,9005,15185,0.112,551
2020-04-23T12:05:11,42.805,6.029,CST-1368DR,6424,9006,15186,0.112,551
2020-04-23T12:08:13,42.805,6.029,CST-1368DR,6424,9003,15181,0.113,550
2020-04-23T12:11:15,42.805,6.029,CST-1368DR,6424,9005,15185,0.112,551
2020-04-23T12:14:16,42.805,6.029,CST-1368DR,6424,9005,15185,0.112,551
2020-04-23T12:17:18,42.805,6.029,CST-1368DR,6424,9004,15183,0.112,551
2020-04-23T12:20:20,42.805,6.029,CST-1368DR,6424,9004,15183,0.112,551
2020-04-23T12:23:21,42.805,6.029,CST-1368DR,6424,9005,15185,0.112,551
2020-04-23T12:26:23,42.805,6.029,CST-1368DR,6424,9006,15186,0.112,551
2020-04-23T12:29:25,42.805,6.029,CST-1368DR,6424,9005,15184,0.112,550
2020-04-23T12:32:27,42.805,6.029,CST-1368DR,6424,9006,15186,0.112,551
2020-04-23T12:35:29,42.805,6.029,CST-1368DR,6424,9004,15183,0.112,551
2020-04-23T12:38:30,42.805,6.029,CST-1368DR,6424,9004,15183,0.112,551
2020-04-23T12:41:32,42.805,6.029,CST-1368DR,6424,9003,15181,0.113,551
2020-04-23T12:44:34,42.805,6.029,CST-1368DR,6424,9003,15181,0.113,551
2020-04-23T12:47:35,42.805,6.029,CST-1368DR,6424,9002,15179,0.114,551
2020-04-23T12:50:37,42.805,6.029,CST-1368DR,6424,9003,15182,0.113,551
2020-04-23T12:53:39,42.805,6.029,CST-1368DR,6424,9003,15181,0.113,551
2020-04-23T12:56:40,42.805,6.029,CST-1368DR,6424,9004,15182,0.113,551
2020-04-23T12:59:42,42.805,6.029,CST-1368DR,6424,9003,15180,0.113,550
2020-04-23T13:02:44,42.805,6.029,CST-1368DR,6424,9003,15181,0.113,550
2020-04-23T13:05:45,42.805,6.029,CST-1368DR,6424,9003,15182,0.113,551
2020-04-23T13:08:47,42.805,6.029,CST-1368DR,6424,9003,15180,0.113,550
2020-04-23T13:11:49,42.805,6.029,CST-1368DR,6424,9005,15184,0.112,550
2020-04-23T13:14:50,42.805,6.029,CST-1368DR,6424,9004,15182,0.113,551
2020-04-23T13:17:52,42.805,6.029,CST-1368DR,6424,9005,15185,0.112,550
2020-04-23T13:20:54,42.805,6.029,CST-1368DR,6424,9006,15186,0.112,551
2020-04-23T13:23:56,42.805,6.029,CST-1368DR,6424,9004,15183,0.112,551
2020-04-23T13:26:57,42.805,6.029,CST-1368DR,6424,9005,15184,0.112,551
2020-04-23T13:29:59,42.805,6.029,CST-1368DR,6424,9004,15183,0.112,551
2020-04-23T13:33:01,42.805,6.029,CST-1368DR,6424,9006,15186,0.112,551
2020-04-23T13:36:03,42.805,6.029,CST-1368DR,6424,9003,15182,0.113,551
2020-04-23T13:39:04,42.805,6.029,CST-1368DR,6424,9004,15183,0.112,551
2020-04-23T13:42:06,42.805,6.029,CST-1368DR,6423,9005,15187,0.111,551
2020-04-23T13:45:08,42.805,6.029,CST-1368DR,6423,9001,15180,0.113,551
2020-04-23T13:48:09,42.805,6.029,CST-1368DR,6423,9004,15184,0.112,550
2020-04-23T13:51:11,42.805,6.029,CST-1368DR,6423,9002,15182,0.113,551
2020-04-23T13:54:13,42.805,6.029,CST-1368DR,6423,9005,15186,0.112,551
2020-04-23T13:57:14,42.805,6.029,CST-1368DR,6423,9003,15184,0.112,551
2020-04-23T14:00:16,42.805,6.029,CST-1368DR,6423,9004,15185,0.112,551
2020-04-23T14:03:18,42.805,6.029,CST-1368DR,6423,9004,15185,0.112,551
2020-04-23T14:06:20,42.805,6.029,CST-1368DR,6423,9003,15183,0.112,551
2020-04-23T14:09:21,42.805,6.029,CST-1368DR,6423,9004,15185,0.112,551
2020-04-23T14:12:23,42.805,6.029,CST-1368DR,6423,9002,15182,0.113,550
2020-04-23T14:15:25,42.805,6.029,CST-1368DR,6423,9005,15186,0.112,551
2020-04-23T14:18:26,42.805,6.029,CST-1368DR,6423,9005,15187,0.111,551
2020-04-23T14:21:28,42.805,6.029,CST-1368DR,6423,9004,15185,0.112,551
2020-04-23T14:24:30,42.805,6.029,CST-1368DR,6423,9004,15184,0.112,551
2020-04-23T14:27:31,42.805,6.029,CST-1368DR,6423,9003,15184,0.112,551
2020-04-23T14:30:33,42.805,6.029,CST-1368DR,6423,9005,15186,0.112,551
2020-04-23T14:33:35,42.805,6.029,CST-1368DR,6424,9005,15185,0.112,551
2020-04-23T14:36:36,42.805,6.029,CST-1368DR,6423,9006,15188,0.111,551
2020-04-23T14:39:38,42.805,6.029,CST-1368DR,6423,9005,15187,0.111,551
2020-04-23T14:42:40,42.805,6.029,CST-1368DR,6423,9006,15188,0.111,551
2020-04-23T14:45:42,42.805,6.029,CST-1368DR,6423,9005,15187,0.111,551
2020-04-23T14:48:43,42.805,6.029,CST-1368DR,6424,9003,15181,0.113,551
2020-04-23T14:51:45,42.805,6.029,CST-1368DR,6423,9005,15187,0.111,551
2020-04-23T14:54:47,42.805,6.029,CST-1368DR,6423,9005,15186,0.112,551
2020-04-23T14:57:49,42.805,6.029,CST-1368DR,6423,9004,15185,0.112,551
2020-04-23T15:00:50,42.805,6.029,CST-1368DR,6423,9004,15185,0.112,551
2020-04-23T15:03:52,42.805,6.029,CST-1368DR,6423,9002,15182,0.113,551
2020-04-23T15:06:54,42.805,6.029,CST-1368DR,6423,9003,15184,0.112,551
2020-04-23T15:09:55,42.805,6.029,CST-1368DR,6423,9004,15185,0.112,551
2020-04-23T15:12:57,42.805,6.029,CST-1368DR,6423,9004,15185,0.112,551
2020-04-23T15:15:59,42.805,6.029,CST-1368DR,6423,9004,15184,0.112,551
2020-04-23T15:19:01,42.805,6.029,CST-1368DR,6423,9002,15181,0.113,551
2020-04-23T15:22:03,42.805,6.029,CST-1368DR,6423,9004,15185,0.112,551
2020-04-23T15:25:04,42.805,6.029,CST-1368DR,6423,9003,15183,0.112,551
2020-04-23T15:28:06,42.805,6.029,CST-1368DR,6423,9004,15185,0.112,551
2020-04-23T15:31:08,42.805,6.029,CST-1368DR,6423,9004,15184,0.112,551
2020-04-23T15:34:09,42.805,6.029,CST-1368DR,6423,8998,15175,0.115,551
2020-04-23T15:37:11,42.805,6.029,CST-1368DR,6423,8999,15177,0.114,551
2020-04-23T15:40:13,42.805,6.029,CST-1368DR,6423,9004,15184,0.112,550
2020-04-23T15:43:14,42.805,6.029,CST-1368DR,6423,9002,15182,0.113,551
2020-04-23T15:46:16,42.805,6.029,CST-1368DR,6423,9003,15183,0.112,551
2020-04-23T15:49:18,42.805,6.029,CST-1368DR,6423,9003,15183,0.112,551
2020-04-23T15:52:20,42.805,6.029,CST-1368DR,6423,9004,15185,0.112,551
2020-04-23T15:55:21,42.805,6.029,CST-1368DR,6423,9002,15182,0.113,551
2020-04-23T15:58:23,42.805,6.029,CST-1368DR,6423,9003,15183,0.112,551
2020-04-23T16:01:25,42.805,6.029,CST-1368DR,6423,9003,15183,0.112,551
2020-04-23T16:04:26,42.805,6.029,CST-1368DR,6423,9003,15183,0.112,551
2020-04-23T16:07:28,42.805,6.029,CST-1368DR,6423,8999,15177,0.114,551
2020-04-23T16:10:30,42.805,6.029,CST-1368DR,6423,9003,15183,0.112,551
2020-04-23T16:13:32,42.805,6.029,CST-1368DR,6423,9002,15182,0.113,551
2020-04-23T16:16:33,42.805,6.029,CST-1368DR,6423,9002,15182,0.113,551
2020-04-23T16:19:35,42.805,6.029,CST-1368DR,6423,9002,15182,0.113,551
2020-04-23T16:22:37,42.805,6.029,CST-1368DR,6423,9003,15183,0.112,551
2020-04-23T16:25:38,42.805,6.029,CST-1368DR,6423,9003,15183,0.112,551
2020-04-23T16:28:40,42.805,6.029,CST-1368DR,6423,9003,15183,0.112,550
2020-04-23T16:31:42,42.805,6.029,CST-1368DR,6423,9003,15183,0.112,551
2020-04-23T16:34:43,42.805,6.029,CST-1368DR,6423,9003,15183,0.112,551
2020-04-23T16:37:45,42.805,6.029,CST-1368DR,6423,9003,15183,0.112,550
2020-04-23T16:40:47,42.805,6.029,CST-1368DR,6423,9003,15183,0.112,551
2020-04-23T16:43:49,42.805,6.029,CST-1368DR,6423,9004,15184,0.112,551
2020-04-23T16:46:51,42.805,6.029,CST-1368DR,6423,9002,15182,0.113,551
2020-04-23T16:49:52,42.805,6.029,CST-1368DR,6423,9002,15181,0.113,551
2020-04-23T16:52:54,42.805,6.029,CST-1368DR,6423,9003,15183,0.112,551